Time,TemperatureF,DewpointF,PressureIn,WindDirection,WindDirectionDegrees,WindSpeedMPH,WindSpeedGustMPH,Humidity,HourlyPrecipIn,Conditions,Clouds,dailyrainin,SolarRadiationWatts/m^2,SoftwareType,DateUTC
2013-03-14 00:21:00,10.0,-14.0,-100.00,ENE,61,7.0,19.0,32,0.00,,,0.00,0.000000,,2013-03-14 08:21:00,
2013-03-14 00:32:00,10.0,-14.0,-100.00,ENE,61,7.0,19.0,32,0.00,,,0.00,0.000000,,2013-03-14 08:32:00,
2013-03-14 00:41:00,10.0,-14.0,-100.00,ENE,61,7.0,19.0,32,0.00,,,0.00,0.000000,,2013-03-14 08:41:00,
2013-03-14 00:51:00,10.0,-14.0,-100.00,ENE,61,7.0,19.0,32,0.00,,,0.00,0.000000,,2013-03-14 08:51:00,
2013-03-14 01:22:00,8.0,-12.0,-100.00,North,354,1.0,19.0,39,0.00,,,0.00,0.000000,,2013-03-14 09:22:00,
2013-03-14 01:32:00,8.0,-12.0,-100.00,North,354,1.0,19.0,39,0.00,,,0.00,0.000000,,2013-03-14 09:32:00,
2013-03-14 01:42:00,8.0,-12.0,-100.00,North,354,1.0,19.0,39,0.00,,,0.00,0.000000,,2013-03-14 09:42:00,
2013-03-14 01:51:00,8.0,-12.0,-100.00,North,354,1.0,19.0,39,0.00,,,0.00,0.000000,,2013-03-14 09:51:00,
2013-03-14 02:22:00,8.0,-11.0,-100.00,NNE,32,3.0,16.0,40,0.00,,,0.00,0.000000,,2013-03-14 10:22:00,
2013-03-14 02:32:00,8.0,-11.0,-100.00,NNE,32,3.0,16.0,40,0.00,,,0.00,0.000000,,2013-03-14 10:32:00,
2013-03-14 02:42:00,8.0,-11.0,-100.00,NNE,32,3.0,16.0,40,0.00,,,0.00,0.000000,,2013-03-14 10:42:00,
2013-03-14 02:52:00,8.0,-11.0,-100.00,NNE,32,3.0,16.0,40,0.00,,,0.00,0.000000,,2013-03-14 10:52:00,
2013-03-14 03:12:00,6.0,-10.0,-100.00,NNE,30,4.0,20.0,46,0.00,,,0.00,0.000000,,2013-03-14 11:12:00,
2013-03-14 03:22:00,6.0,-10.0,-100.00,NNE,30,4.0,20.0,46,0.00,,,0.00,0.000000,,2013-03-14 11:22:00,
2013-03-14 03:32:00,6.0,-10.0,-100.00,NNE,30,4.0,20.0,46,0.00,,,0.00,0.000000,,2013-03-14 11:32:00,
2013-03-14 03:42:00,6.0,-10.0,-100.00,NNE,30,4.0,20.0,46,0.00,,,0.00,0.000000,,2013-03-14 11:42:00,
2013-03-14 03:52:00,6.0,-10.0,-100.00,NNE,30,4.0,20.0,46,0.00,,,0.00,0.000000,,2013-03-14 11:52:00,
2013-03-14 04:22:00,7.0,-10.0,-100.00,ENE,61,3.0,12.0,44,0.00,,,0.00,0.000000,,2013-03-14 12:22:00,
2013-03-14 04:33:00,7.0,-10.0,-100.00,ENE,61,3.0,12.0,44,0.00,,,0.00,0.000000,,2013-03-14 12:33:00,
2013-03-14 04:42:00,7.0,-10.0,-100.00,ENE,61,3.0,12.0,44,0.00,,,0.00,0.000000,,2013-03-14 12:42:00,
2013-03-14 04:51:00,7.0,-10.0,-100.00,ENE,61,3.0,12.0,44,0.00,,,0.00,0.000000,,2013-03-14 12:51:00,
2013-03-14 05:22:00,7.0,-12.0,-100.00,West,269,3.0,7.0,40,0.00,,,-99.99,0.000000,,2013-03-14 13:22:00,
2013-03-14 05:32:00,7.0,-12.0,-100.00,West,269,3.0,7.0,40,0.00,,,-99.99,0.000000,,2013-03-14 13:32:00,
2013-03-14 05:42:00,7.0,-12.0,-100.00,West,269,3.0,7.0,40,0.00,,,-99.99,0.000000,,2013-03-14 13:42:00,
2013-03-14 05:52:00,7.0,-12.0,-100.00,West,269,3.0,7.0,40,0.00,,,-99.99,0.000000,,2013-03-14 13:52:00,
2013-03-14 06:22:00,5.0,-11.0,-100.00,West,272,2.0,6.0,46,0.00,,,0.00,0.000000,,2013-03-14 14:22:00,
2013-03-14 06:32:00,5.0,-11.0,-100.00,West,272,2.0,6.0,46,0.00,,,0.00,0.000000,,2013-03-14 14:32:00,
2013-03-14 06:42:00,5.0,-11.0,-100.00,West,272,2.0,6.0,46,0.00,,,0.00,0.000000,,2013-03-14 14:42:00,
2013-03-14 06:52:00,5.0,-11.0,-100.00,West,272,2.0,6.0,46,0.00,,,0.00,0.000000,,2013-03-14 14:52:00,
2013-03-14 07:22:00,4.0,-9.0,-100.00,North,353,1.0,4.0,53,0.00,,,0.00,0.000000,,2013-03-14 15:22:00,
2013-03-14 07:32:00,4.0,-9.0,-100.00,North,353,1.0,4.0,53,0.00,,,0.00,0.000000,,2013-03-14 15:32:00,
2013-03-14 07:42:00,4.0,-9.0,-100.00,North,353,1.0,4.0,53,0.00,,,0.00,0.000000,,2013-03-14 15:42:00,
2013-03-14 07:52:00,4.0,-9.0,-100.00,North,353,1.0,4.0,53,0.00,,,0.00,0.000000,,2013-03-14 15:52:00,
2013-03-14 08:22:00,0.0,-10.0,-100.00,SSW,212,1.0,3.0,63,0.00,,,0.00,1.000000,,2013-03-14 16:22:00,
2013-03-14 08:32:00,0.0,-10.0,-100.00,SSW,212,1.0,3.0,63,0.00,,,0.00,1.000000,,2013-03-14 16:32:00,
2013-03-14 08:42:00,0.0,-10.0,-100.00,SSW,212,1.0,3.0,63,0.00,,,0.00,1.000000,,2013-03-14 16:42:00,
2013-03-14 08:52:00,0.0,-10.0,-100.00,SSW,212,1.0,3.0,63,0.00,,,0.00,1.000000,,2013-03-14 16:52:00,
2013-03-14 09:23:00,3.0,-11.0,-100.00,WSW,244,2.0,4.0,51,0.00,,,0.00,29.000000,,2013-03-14 17:23:00,
2013-03-14 09:32:00,3.0,-11.0,-100.00,WSW,244,2.0,4.0,51,0.00,,,0.00,29.000000,,2013-03-14 17:32:00,
2013-03-14 09:42:00,3.0,-11.0,-100.00,WSW,244,2.0,4.0,51,0.00,,,0.00,29.000000,,2013-03-14 17:42:00,
2013-03-14 09:52:00,3.0,-11.0,-100.00,WSW,244,2.0,4.0,51,0.00,,,0.00,29.000000,,2013-03-14 17:52:00,
2013-03-14 10:22:00,6.0,-9.0,-100.00,NNW,333,1.0,4.0,48,0.00,,,0.00,59.000000,,2013-03-14 18:22:00,
2013-03-14 10:32:00,6.0,-9.0,-100.00,NNW,333,1.0,4.0,48,0.00,,,0.00,59.000000,,2013-03-14 18:32:00,
2013-03-14 10:42:00,6.0,-9.0,-100.00,NNW,333,1.0,4.0,48,0.00,,,0.00,59.000000,,2013-03-14 18:42:00,
2013-03-14 10:52:00,6.0,-9.0,-100.00,NNW,333,1.0,4.0,48,0.00,,,0.00,59.000000,,2013-03-14 18:52:00,
2013-03-14 11:22:00,15.0,-8.0,-100.00,NNE,17,1.0,4.0,34,0.00,,,0.00,210.000000,,2013-03-14 19:22:00,
2013-03-14 11:32:00,15.0,-8.0,-100.00,NNE,17,1.0,4.0,34,0.00,,,0.00,210.000000,,2013-03-14 19:32:00,
2013-03-14 11:42:00,15.0,-8.0,-100.00,NNE,17,1.0,4.0,34,0.00,,,0.00,210.000000,,2013-03-14 19:42:00,
2013-03-14 11:52:00,15.0,-8.0,-100.00,NNE,17,1.0,4.0,34,0.00,,,0.00,210.000000,,2013-03-14 19:52:00,
2013-03-14 13:22:00,25.0,-6.0,-100.00,NNW,331,2.0,6.0,25,-99.99,,,0.00,413.000000,,2013-03-14 21:22:00,
2013-03-14 13:32:00,25.0,-6.0,-100.00,NNW,331,2.0,6.0,25,-99.99,,,0.00,413.000000,,2013-03-14 21:32:00,
2013-03-14 13:43:00,25.0,-6.0,-100.00,NNW,331,2.0,6.0,25,-99.99,,,0.00,413.000000,,2013-03-14 21:43:00,
2013-03-14 13:52:00,25.0,-6.0,-100.00,NNW,331,2.0,6.0,25,-99.99,,,0.00,413.000000,,2013-03-14 21:52:00,
2013-03-14 14:23:00,28.0,-5.0,-100.00,NNE,15,4.0,7.0,23,0.00,,,0.00,534.000000,,2013-03-14 22:23:00,
2013-03-14 14:33:00,28.0,-5.0,-100.00,NNE,15,4.0,7.0,23,0.00,,,0.00,534.000000,,2013-03-14 22:33:00,
2013-03-14 14:42:00,28.0,-5.0,-100.00,NNE,15,4.0,7.0,23,0.00,,,0.00,534.000000,,2013-03-14 22:42:00,
2013-03-14 14:52:00,28.0,-5.0,-100.00,NNE,15,4.0,7.0,23,0.00,,,0.00,534.000000,,2013-03-14 22:52:00,
2013-03-14 15:22:00,34.0,-4.0,-100.00,NNE,29,0.0,6.0,19,0.00,,,0.00,510.000000,,2013-03-14 23:22:00,
2013-03-14 15:33:00,34.0,-4.0,-100.00,NNE,29,0.0,6.0,19,0.00,,,0.00,510.000000,,2013-03-14 23:33:00,
2013-03-14 15:42:00,34.0,-4.0,-100.00,NNE,29,0.0,6.0,19,0.00,,,0.00,510.000000,,2013-03-14 23:42:00,
2013-03-14 15:52:00,34.0,-4.0,-100.00,NNE,29,0.0,6.0,19,0.00,,,0.00,510.000000,,2013-03-14 23:52:00,
2013-03-14 16:22:00,30.0,-2.0,-100.00,East,90,5.0,9.0,24,0.00,,,0.00,444.000000,,2013-03-15 00:22:00,
2013-03-14 16:32:00,30.0,-2.0,-100.00,East,90,5.0,9.0,24,0.00,,,0.00,444.000000,,2013-03-15 00:32:00,
2013-03-14 16:42:00,30.0,-2.0,-100.00,East,90,5.0,9.0,24,0.00,,,0.00,444.000000,,2013-03-15 00:42:00,
2013-03-14 16:52:00,30.0,-2.0,-100.00,East,90,5.0,9.0,24,0.00,,,0.00,444.000000,,2013-03-15 00:52:00,
2013-03-14 17:22:00,31.0,-2.0,-100.00,NNE,21,2.0,8.0,23,0.00,,,0.00,338.000000,,2013-03-15 01:22:00,
2013-03-14 17:32:00,31.0,-2.0,-100.00,NNE,21,2.0,8.0,23,0.00,,,0.00,338.000000,,2013-03-15 01:32:00,
2013-03-14 17:42:00,31.0,-2.0,-100.00,NNE,21,2.0,8.0,23,0.00,,,0.00,338.000000,,2013-03-15 01:42:00,
2013-03-14 17:52:00,31.0,-2.0,-100.00,NNE,21,2.0,8.0,23,0.00,,,0.00,338.000000,,2013-03-15 01:52:00,
2013-03-14 18:22:00,28.0,-2.0,-100.00,NNE,29,2.0,9.0,26,0.00,,,0.00,214.000000,,2013-03-15 02:22:00,
2013-03-14 18:32:00,28.0,-2.0,-100.00,NNE,29,2.0,9.0,26,0.00,,,0.00,214.000000,,2013-03-15 02:32:00,
2013-03-14 18:42:00,28.0,-2.0,-100.00,NNE,29,2.0,9.0,26,0.00,,,0.00,214.000000,,2013-03-15 02:42:00,
2013-03-14 18:52:00,28.0,-2.0,-100.00,NNE,29,2.0,9.0,26,0.00,,,0.00,214.000000,,2013-03-15 02:52:00,
2013-03-14 19:22:00,24.0,-3.0,-100.00,ENE,77,3.0,7.0,30,0.00,,,0.00,77.000000,,2013-03-15 03:22:00,
2013-03-14 19:32:00,24.0,-3.0,-100.00,ENE,77,3.0,7.0,30,0.00,,,0.00,77.000000,,2013-03-15 03:32:00,
2013-03-14 19:42:00,24.0,-3.0,-100.00,ENE,77,3.0,7.0,30,0.00,,,0.00,77.000000,,2013-03-15 03:42:00,
2013-03-14 19:52:00,24.0,-3.0,-100.00,ENE,77,3.0,7.0,30,0.00,,,0.00,77.000000,,2013-03-15 03:52:00,
2013-03-14 20:22:00,15.0,-5.0,-100.00,WSW,253,2.0,6.0,39,0.00,,,0.00,7.000000,,2013-03-15 04:22:00,
2013-03-14 20:32:00,15.0,-5.0,-100.00,WSW,253,2.0,6.0,39,0.00,,,0.00,7.000000,,2013-03-15 04:32:00,
2013-03-14 20:42:00,15.0,-5.0,-100.00,WSW,253,2.0,6.0,39,0.00,,,0.00,7.000000,,2013-03-15 04:42:00,
2013-03-14 20:52:00,15.0,-5.0,-100.00,WSW,253,2.0,6.0,39,0.00,,,0.00,7.000000,,2013-03-15 04:52:00,
2013-03-14 21:22:00,12.0,-4.0,-100.00,WSW,248,4.0,7.0,47,0.00,,,-99.99,0.000000,,2013-03-15 05:22:00,
2013-03-14 21:32:00,12.0,-4.0,-100.00,WSW,248,4.0,7.0,47,0.00,,,-99.99,0.000000,,2013-03-15 05:32:00,
2013-03-14 21:42:00,12.0,-4.0,-100.00,WSW,248,4.0,7.0,47,0.00,,,-99.99,0.000000,,2013-03-15 05:42:00,
2013-03-14 21:52:00,12.0,-4.0,-100.00,WSW,248,4.0,7.0,47,0.00,,,-99.99,0.000000,,2013-03-15 05:52:00,
2013-03-14 22:22:00,3.0,-7.0,-100.00,SSW,196,3.0,4.0,61,0.00,,,0.00,0.000000,,2013-03-15 06:22:00,
2013-03-14 22:32:00,3.0,-7.0,-100.00,SSW,196,3.0,4.0,61,0.00,,,0.00,0.000000,,2013-03-15 06:32:00,
2013-03-14 22:42:00,3.0,-7.0,-100.00,SSW,196,3.0,4.0,61,0.00,,,0.00,0.000000,,2013-03-15 06:42:00,
2013-03-14 22:52:00,3.0,-7.0,-100.00,SSW,196,3.0,4.0,61,0.00,,,0.00,0.000000,,2013-03-15 06:52:00,
2013-03-14 23:22:00,-2.0,-10.0,-100.00,South,174,2.0,4.0,69,0.00,,,0.00,0.000000,,2013-03-15 07:22:00,
2013-03-14 23:32:00,-2.0,-10.0,-100.00,South,174,2.0,4.0,69,0.00,,,0.00,0.000000,,2013-03-15 07:32:00,
2013-03-14 23:42:00,-2.0,-10.0,-100.00,South,174,2.0,4.0,69,0.00,,,0.00,0.000000,,2013-03-15 07:42:00,
2013-03-14 23:52:00,-2.0,-10.0,-100.00,South,174,2.0,4.0,69,0.00,,,0.00,0.000000,,2013-03-15 07:52:00,